This demonstration page uses our WeatherBlox Daily Observations layout. Learn more.

Left ArrowRight Arrow

30.21309, -93.2044

Hourly Observations for January 27, 2022

Temp ( °F °C ) Dew Point ( °F °C ) Humidity (%) Winds ( mph kmh ) Pressure ( in mb ) Visibility ( mi km ) Precip ( " mm )
12:15 am 00:15 Clear 38 3.3 27 -3 64 64 NE 6 9 30.29 1026 10 16 0.00 0.00
12:35 am 00:35 Clear 37 3 26 -3.2 64 64 NNE 3 6 30.29 1026 10 16 0.00 0.00
12:55 am 00:55 Clear 37 3 26 -3.3 64 64 Calm 30.30 1026 10 16 0.00 0.00
1:15 am 01:15 Clear 36 2.1 26 -3.2 68 68 NNW 6 9 30.31 1026 10 16 0.00 0.00
1:35 am 01:35 Clear 36 2.3 27 -3 68 68 N 6 9 30.32 1027 10 16 0.00 0.00
1:55 am 01:55 Clear 36 2.1 27 -2.9 70 70 NNW 3 6 30.32 1027 10 16 0.00 0.00
2:15 am 02:15 Clear 35 1.6 27 -2.9 72 72 N 6 9 30.32 1027 10 16 0.00 0.00
2:35 am 02:35 Clear 35 1.7 26 -3.2 70 70 N 3 6 30.31 1026 10 16 0.00 0.00
2:55 am 02:55 Clear 35 1.8 26 -3.3 69 69 Calm 30.30 1026 10 16 0.00 0.00
3:15 am 03:15 Clear 34 1.3 28 -2.5 76 76 Calm 30.29 1026 10 16 0.00 0.00
3:35 am 03:35 Clear 35 1.4 26 -3.1 72 72 Calm 30.29 1026 10 16 0.00 0.00
3:55 am 03:55 Partly Cloudy 34 1.3 27 -2.9 74 74 NNE 5 7 30.29 1026 10 16 0.00 0.00
4:15 am 04:15 Mostly Cloudy 35 1.4 26 -3.2 72 72 N 5 7 30.29 1026 10 16 0.00 0.00
4:35 am 04:35 Mostly Cloudy 35 1.6 26 -3.3 70 70 N 5 7 30.29 1026 10 16 0.00 0.00
4:55 am 04:55 Clear 34 1.2 26 -3.6 71 71 NNE 3 6 30.29 1026 10 16 0.00 0.00
5:15 am 05:15 Clear 34 1.1 26 -3.4 72 72 NE 5 7 30.29 1026 10 16 0.00 0.00
5:35 am 05:35 Clear 33 0.8 26 -3.6 73 73 NNE 5 7 30.29 1026 10 16 0.00 0.00
6:00 am 06:00 Mostly Clear 34 1 27 -3 75 75 NNE 7 11 30.29 1026 10 16 0.00 0.00
6:48 am 06:48 Mostly Clear 34 1 27 -3 75 75 Calm 30.28 1025 10 16 0.00 0.00
7:50 am 07:50 Mostly Sunny 34 1 27 -3 75 75 NE 7 11 30.29 1026 10 16 0.00 0.00
8:51 am 08:51 Mostly Sunny 39 4 28 -2 65 65 NNE 7 11 30.30 1026 10 16 0.00 0.00
9:45 am 09:45 Mostly Sunny 43 6 28 -2 57 57 NE 8 13 30.31 1026 10 16 0.00 0.00
10:50 am 10:50 Mostly Sunny 50 10 30 -1 47 47 NNE 6 9 30.31 1026 10 16 0.00 0.00
11:55 am 11:55 Mostly Sunny 54 12 28 -2 38 38 Calm 30.27 1025 10 16 0.00 0.00
12:50 pm 12:50 Mostly Sunny 55 13 28 -2 36 36 Calm 30.24 1024 10 16 0.00 0.00
1:45 pm 13:45 Mostly Sunny 57 14 28 -2 33 33 N 7 11 30.21 1023 10 16 0.00 0.00
2:45 pm 14:45 Mostly Sunny 61 16 34 1 36 36 NNW 8 13 30.19 1022 10 16 0.00 0.00
3:45 pm 15:45 Mostly Sunny 61 16 34 1 36 36 N 7 11 30.19 1022 10 16 0.00 0.00
4:45 pm 16:45 Mostly Sunny 59 15 34 1 39 39 N 8 13 30.20 1023 10 16 0.00 0.00
5:48 pm 17:48 Mostly Clear 55 13 36 2 47 47 N 6 9 30.21 1023 10 16 0.00 0.00
6:50 pm 18:50 Mostly Clear 54 12 36 2 51 51 N 9 15 30.22 1023 10 16 0.00 0.00
7:50 pm 19:50 Mostly Clear 52 11 34 1 50 50 N 8 13 30.24 1024 10 16 0.00 0.00
8:45 pm 20:45 Mostly Clear 48 9 32 0 54 54 Calm 30.25 1024 10 16 0.00 0.00
9:45 pm 21:45 Mostly Clear 48 9 32 0 54 54 Calm 30.26 1025 10 16 0.00 0.00
10:15 pm 22:15 Clear 46 7.8 34 1.1 63 63 NNW 6 9 30.27 1025 10 16 0.00 0.00
10:35 pm 22:35 Clear 47 8.5 34 0.9 59 59 N 7 11 30.28 1025 10 16 0.00 0.00
10:55 pm 22:55 Clear 48 8.7 33 0.5 57 57 NNW 6 9 30.29 1026 10 16 0.00 0.00
11:15 pm 23:15 Clear 48 8.8 32 -0.2 54 54 N 6 9 30.29 1026 10 16 0.00 0.00
11:35 pm 23:35 Clear 47 8.1 32 0.2 58 58 NNW 5 7 30.29 1026 10 16 0.00 0.00
11:55 pm 23:55 Clear 47 8.2 31 -0.4 55 55 N 7 11 30.30 1026 10 16 0.00 0.00

Powered by AerisWeather